Погода в Нюрбе

Погода в Нюрбе : погода сейчас, прогноз погоды и архив. Всё, что Вы хотите узнать о погоде в Нюрбе!

Хотите узнать прогноз погоды в Нюрбе? Тогда Вам сюда: Погода в Нюрбе

Поиск расширенной информации на нашем сайте:

Другие новости

Новости СМИ2

Главная страница сайта

Новости сайта

03.07.2017

Напоминаем, что на нашем специализированном сайте Метеоцентр.Азия вы можете получить высокодетализированные автоматические прогнозы погоды по пунктам России, СНГ и мира в авиационном формате (включающие направление и скорость ветра, видимость, явления погоды, количество и форму облачности, нижнюю и верхнюю границу облачности).

Рекомендуем: Лечебное голодание

Погода в Нюрбе - сегодня

Время (UTC), дата Ветер
(°,м/с) 
Видим.   Явления Облачность Т
(°С)
Тd
(°С)
f(%) Тe
(°С)
Pmin
(гПа)
dP
(гПа)
Po
(мм)
O2
(г/м3)
Тmin Tmax R s Состояние
почвы
21 20.02.18 230 (ЮЗ) 10 км    3/0 верхняя 
[Ci fib]
-38.7 -42 71 -43  1019.4  -0.2  751  355           
03 21.02.18 250 (З) 4000 м  дымка  8/0 верхняя 
[Ci fib]
-33.7 -37.2 71 -40  1018.1  -0.5  751  347           
06 21.02.18 230 (ЮЗ) 20000 м    3/0 верхняя 
[Ci fib]
-27.9 -31.7 70 -33  1017  -0.6  750  339           
09 21.02.18 220 (ЮЗ) 20000 м    6/0 верхняя 
[Ci fib]
-27.2 -31 70 -32  1016.9  -0.1  750  338           
12 21.02.18 230 (ЮЗ) 20000 м    10/0 верхняя 
[Cs]
-27.6 -30.6 76 -33  1016.5  -0.2  750  338    -26.7       
15 21.02.18 230 (ЮЗ) 20000 м  слаб. снег  10/0 верхняя 
[Cs]
-27.6 -30.6 76 -31  1015.7  -1  749  338           
18 21.02.18 220 (ЮЗ) 20000 м  слаб. снег  10/0 верхняя 
[Cs]
-27.6 -30.6 76 -33  1014.9  -0.8  749  337           
21 21.02.18 220 (ЮЗ) 20000 м  слаб. снег  10/0 верхняя 
[Cs]
-29.2 -32.2 75 -33  1015  749  340           
03 22.02.18 230 (ЮЗ) 20000 м  слаб. снег  10/0 средняя, верхняя 
[As trans|Cs]
-26.3 -30.1 70 -30  1015.7  0.2  749  336           
06 22.02.18 230 (ЮЗ) 20000 м  слаб. снег  10/0 средняя, верхняя 
[As trans|Cs]
-23.2 -27.1 70 -26  1016  0.6  750  332           
09 22.02.18 220 (ЮЗ) 20000 м  слаб. снег  10/0 средняя, верхняя 
[As trans|Cs]
-24.2 -27.3 75 -25  1017.9  1.8  751  334           
15 22.02.18 060 (СВ) 20000 м  слаб. снег  10/0 средняя, верхняя 
[As trans|Cs]
-28.3 -31.3 76 -29  1020.4  0.6  753  340           
18 22.02.18 040 (СВ) 20000 м  слаб. снег  10/0 средняя, верхняя 
[As trans|Cs]
-32.4 -35.5 74 -33  1021.9  1.2  754  346           
21 22.02.18 040 (СВ) 20000 м  слаб. снег  10/0 средняя, верхняя 
[As trans|Cs]
-35.1 -38 75 -36  1023.3  1.3  755  351           
03 23.02.18 080 (В) 20000 м    5/0 верхняя 
[Ci fib]
-30.9 -33.8 76 -35  1027.1  2.2  758  346           
06 23.02.18 050 (СВ) 20000 м    3/0 верхняя 
[Ci fib]
-23.7 -27.6 70 -27  1027.4  0.8  758  336           
09 23.02.18 050 (СВ) 20000 м    3/0 верхняя 
[Ci fib]
-23.6 -27.6 70 -24  1029.4  1.9  760  337           
12 23.02.18 040 (СВ) 20000 м    3/0 верхняя 
[Ci fib]
-28.3 -32 70 -32  1030.6  0.9  760  344    -22.4       
15 23.02.18 020 (С) 20000 м    ясно 
-31.4 -34.2 76 -32  1031.5  0.7  761  348           
18 23.02.18 020 (С) 20000 м    ясно 
-32.1 -35 75 -33  1032.2  0.6  761  350           
21 23.02.18 030 (СВ) 20000 м    ясно 
-34.3 -37.1 76 -35  1032.9  0.5  762  353           
00 24.02.18 020 (С) 20000 м    ясно 
-33.7 -36.5 76 -38  1033.2  0.4  762  352  -34.6      42  равномерный
сухой снег
100% 
03 24.02.18 040 (СВ) 20000 м    4/0 верхняя 
[Ci fib]
-30 -33.7 70 -34  1033.3  0.4  762  347           
06 24.02.18 060 (СВ) 20000 м    3/0 верхняя 
[Ci fib]
-25.3 -29.1 71 -29  1032.8  -0.2  762  340           
09 24.02.18 040 (СВ) 20000 м    4/0 верхняя 
[Ci fib]
-25 -28.8 71 -28  1033.6  0.8  763  340           
Время (UTC), дата Ветер
(°,м/с) 
Видим.   Явления Облачность Т
(°С)
Тd
(°С)
f(%) Тe
(°С)
Pmin
(гПа)
dP
(гПа)
Po
(мм)
O2
(г/м3)
Тmin Tmax R s Состояние
почвы

Для получения пояснительной информации подведите курсор к названию столбца.

ПОГОДА в Нюрбе - архив

Всё, что Вы хотите узнать о погоде в Нюрбе - удобно и подробно!

Выберите нужную дату (начиная с 1 января 2015* года) и нажмите кнопку "Найти".
Будут отображены архивные сводки погоды по пункту Нюрба, начиная с указанной даты.


Отображать данные в формате CSV (для использования в таблицах Excel)


Внимание! Наш архив погоды предназначен исключительно для личного некоммерческого использования в познавательных целях. Если Вам необходимы официальные справки о состоянии погоды (для производственных, юридических, коммерческих и т.п. целей), обращайтесь в органы Росгидромета.

*Примечание: данная дата относится к архиву по метеостанциям СССР (Россия, СНГ, Балтия).
Архив по метеостанциям Зарубежной Европы и Азии (кроме Китая) хранится 10 дней, по другим регионам земного шара (Китай, Африка, Америка, Австралия, Океания) - 1 день.

Нюрба - район местоположения метеостанции


Название, широта, долгота, высота метеостанции:
Нюрба 63.3°ш. 118.3°д. 119 м над ур. моря [Российская Федерация]

Дополнительная информация

В oтличие oт бoльшинства пoгoдных сайтoв мы публикуем пoдрoбную метеoинфoрмацию в детальнoм прoфессиoнальнoм фoрмате.

Характеристики температуры и влажнoсти вoздуха измеряются на высoте 2 м в тени вдали oт зданий и деревьев.
Скoрoсть ветра измеряется на высoте 10 м (на урoвне рoста челoвека скoрoсть ветра ниже в 1.5-2 раза). Если метеoстанция нахoдится в гoрoде или в лесу, тo скoрoсть ветра занижена на 2-4 м/с пo сравнению с oткрытым местoм. Скoрoсть ветра над акватoриями крупных рек и oзёр, а также на вершинах хoлмoв на 2-5 м/с выше, чем в oбычных услoвиях.
Атмoсфернoе давление в разных тoчках местнoсти мoжет значительнo oтличаться oт давления на метеoстанции, в зависимoсти oт услoвий рельефа (при пoдъёме на 10 м давление пoнижается примернo на 1 мм рт.ст.).